[[{"header":{"parameterUnit":"m.s-1","parameterCategory":2,"la1":30.2991,"la2":30.254,"lo1":-89.0895,"lo2":-89.0444,"dy":0.0017,"dx":0.0017,"nx":28,"ny":28,"refTime":"2023-10-09T21:00:00:Z","depth":"0","parameterNumber":2,"parameterNumberName":"U-component_of_CURRENTS"},"data":[0,0,0,0,0,0,0,0,0,0,0,0,0,0,0,0,0,0,0,0,0,0,0,0,0,0,0,0,0,0,0,0,0,0,0,0,0,0,0,0,0,0,0,0,0,0,0,0,0,0,0,0,0,0,0,0,0,0,-0.3208,-0.3209,0,-0.3276,-0.3277,-0.3278,-0.3311,-0.3311,-0.3311,-0.3311,-0.3256,-0.3255,-0.3253,0,0,0,0,0,0,0,0,0,0,0,0,0,-0.3165,-0.3166,-0.3208,-0.3209,-0.321,-0.3276,-0.3277,-0.3278,-0.3311,-0.3311,-0.3311,-0.3311,-0.3257,-0.3255,-0.3253,0,0,0,0,0,0,0,0,0,0,0,0,0,-0.3204,-0.3166,-0.3208,-0.3234,-0.3237,-0.3276,-0.3277,-0.3278,-0.3312,-0.3311,-0.3311,-0.3311,-0.3257,-0.3255,-0.3253,-0.3242,0,0,-0.3246,-0.3246,0,0,0,0,0,0,0,0,-0.3202,-0.3206,-0.323,-0.3232,-0.3236,-0.3285,-0.3242,-0.326,-0.3312,-0.3284,-0.3311,-0.3311,-0.3254,-0.3252,-0.3268,-0.3239,-0.3237,-0.3246,-0.3245,-0.3244,-0.3243,0,0,0,0,0,0,0,-0.3199,-0.3203,-0.3236,-0.323,-0.3234,-0.3262,-0.3267,-0.3246,-0.3267,-0.3286,-0.3289,-0.3295,-0.3255,-0.327,-0.3266,-0.3236,-0.3246,-0.3244,-0.3243,-0.3242,-0.311,-0.3108,0,0,0,0,0,0,-0.3186,-0.3201,-0.3234,-0.3238,-0.3217,-0.3262,-0.3268,-0.327,-0.327,-0.3271,-0.3295,-0.3297,-0.3274,-0.3269,-0.3264,-0.3233,-0.3244,-0.3242,-0.3241,-0.3112,-0.3109,-0.3107,0,0,0,0,0,0,-0.3185,-0.3189,-0.3231,-0.3221,-0.3228,-0.3263,-0.3265,-0.3271,-0.3287,-0.3278,-0.3276,-0.3305,-0.3273,-0.3267,-0.323,-0.3232,-0.3241,-0.3239,-0.3115,-0.3111,-0.3108,-0.3182,0,0,0,0,0,0,-0.3184,-0.3188,-0.3176,-0.3219,-0.3228,-0.3244,-0.3265,-0.3272,-0.3291,-0.3293,-0.3285,-0.328,-0.3273,-0.3233,-0.3227,-0.3229,-0.3238,-0.3118,-0.3113,-0.3109,-0.3182,-0.3181,-0.3181,0,0,0,0,0,-0.3182,-0.3172,-0.3175,-0.3179,-0.3214,-0.3243,-0.325,-0.3276,-0.3291,-0.3292,-0.3279,-0.3281,-0.3201,-0.323,-0.3224,-0.3225,-0.312,-0.3114,-0.311,-0.3183,-0.3182,-0.3181,0,0,0,0,0,0,-0.3166,-0.3176,-0.318,-0.3178,-0.3202,-0.3248,-0.3257,-0.3275,-0.3273,-0.3275,-0.3265,-0.3258,-0.3225,-0.3196,-0.3228,-0.3164,-0.3155,-0.3149,-0.3212,-0.3211,-0.321,-0.3226,-0.3236,0,0,0,0,0,-0.3152,-0.3132,-0.3165,-0.3162,-0.3178,-0.3217,-0.3231,-0.3252,-0.3262,-0.3264,-0.3255,-0.3227,-0.3199,-0.3184,-0.3153,-0.3126,-0.3122,-0.3111,-0.311,-0.311,-0.3112,-0.3114,-0.3117,-0.309,-0.309,-0.3091,0,0,-0.3154,-0.3147,-0.3144,-0.3154,-0.3182,-0.3211,-0.3226,-0.3253,-0.3271,-0.3253,-0.3257,-0.3228,-0.3187,-0.316,-0.3141,-0.314,-0.3112,-0.3104,-0.3105,-0.3106,-0.311,-0.3113,-0.3116,-0.3087,-0.3088,-0.3088,0,0,-0.3152,-0.3139,-0.3135,-0.3153,-0.3178,-0.32,-0.3207,-0.3248,-0.3256,-0.3254,-0.3239,-0.3207,-0.3173,-0.3148,-0.3131,-0.3097,-0.3108,-0.3077,-0.3097,-0.3101,-0.3105,-0.3108,-0.3113,-0.3117,-0.3079,-0.3079,-0.3079,0,-0.3147,-0.3151,-0.3142,-0.3156,-0.3179,-0.3197,-0.3231,-0.3242,-0.3258,-0.3269,-0.3253,-0.3208,-0.317,-0.3148,-0.3129,-0.3103,-0.3108,-0.3122,-0.3108,-0.3111,-0.3113,-0.3118,-0.3121,-0.3082,-0.3082,-0.3081,-0.3081,0,-0.3157,-0.3168,-0.3176,-0.3188,-0.3206,-0.3234,-0.3258,-0.3268,-0.3277,-0.3294,-0.3274,-0.322,-0.3197,-0.3169,-0.3142,-0.3128,-0.3129,-0.3117,-0.3132,-0.3122,-0.3125,-0.3127,-0.3086,-0.3085,-0.3084,-0.3083,0,0,-0.3124,-0.3172,-0.3175,-0.3208,-0.323,-0.3258,-0.3275,-0.3309,-0.3347,-0.3319,-0.3348,-0.3273,-0.3255,-0.3227,-0.3182,-0.3168,-0.3182,-0.3151,-0.315,-0.3194,-0.3202,-0.3066,-0.3055,-0.3187,-0.3187,-0.3188,-0.3203,0,-0.3138,-0.3182,-0.3194,-0.3253,-0.3292,-0.3314,-0.3338,-0.3365,-0.3378,-0.3402,-0.3347,-0.3344,-0.3275,-0.3266,-0.3238,-0.3197,-0.3188,-0.3179,-0.317,-0.3169,-0.3082,-0.3052,-0.2974,-0.2968,-0.3204,-0.3205,-0.3205,0,-0.3137,-0.317,-0.323,-0.3311,-0.3333,-0.3362,-0.3423,-0.3449,-0.3475,-0.3483,-0.3465,-0.3441,-0.339,-0.3338,-0.3277,-0.3282,-0.3242,-0.3209,-0.3209,-0.3057,-0.3035,-0.3008,-0.2962,-0.2965,-0.3208,-0.3208,-0.3207,0,-0.3114,-0.3196,-0.3245,-0.327,-0.3354,-0.3387,-0.3427,-0.3474,-0.3503,-0.3532,-0.3549,-0.3513,-0.3476,-0.343,-0.332,-0.3324,-0.3259,-0.3265,-0.3108,-0.31,-0.3012,-0.2993,-0.2996,-0.3235,-0.3235,-0.3235,-0.3235,0,-0.3107,-0.3152,-0.3248,-0.3274,-0.3357,-0.3403,-0.3474,-0.3517,-0.3556,-0.3579,-0.3578,-0.3553,-0.3498,-0.3442,-0.3364,-0.3215,-0.3293,-0.31,-0.3085,-0.3029,-0.3012,-0.299,-0.3012,-0.3236,-0.3235,-0.3235,-0.3235,0,-0.3066,-0.3125,-0.3197,-0.3303,-0.3344,-0.3398,-0.3494,-0.3543,-0.3581,-0.3602,-0.3606,-0.3591,-0.349,-0.3417,-0.3332,-0.3246,-0.3087,-0.3077,-0.3003,-0.2974,-0.2808,-0.2834,-0.2744,-0.2671,-0.2929,-0.2925,-0.2922,0,-0.3044,-0.3073,-0.3205,-0.3255,-0.3304,-0.3392,-0.3454,-0.3536,-0.3569,-0.3589,-0.3583,-0.352,-0.3409,-0.3235,-0.3089,-0.2945,-0.2934,-0.2814,-0.2778,-0.2768,-0.2791,-0.2784,-0.2729,-0.2715,-0.271,-0.2707,-0.2704,0,-0.2994,-0.3041,-0.31,-0.3192,-0.3273,-0.3352,-0.3431,-0.3449,-0.3512,-0.3496,-0.3412,-0.333,-0.3193,-0.298,-0.2819,-0.272,-0.2753,-0.273,-0.2759,-0.2633,-0.2592,-0.2523,-0.2751,-0.2672,-0.2675,-0.2677,-0.2679,-0.268,-0.2932,-0.2956,-0.3012,-0.3086,-0.3176,-0.3194,-0.3173,-0.3242,-0.3197,-0.3092,-0.3161,-0.3014,-0.2944,-0.2663,-0.2565,-0.2438,-0.2457,-0.2396,-0.2438,-0.2439,-0.2322,-0.2451,-0.2315,-0.2316,-0.2317,-0.2318,-0.2319,0,-0.2794,-0.2824,-0.2893,-0.2926,-0.2924,-0.3026,-0.3058,-0.2968,-0.2821,-0.2845,-0.2719,-0.2679,-0.2508,-0.248,-0.2365,-0.2239,-0.2186,-0.2182,-0.2218,-0.218,-0.2339,-0.2282,-0.2085,-0.2085,-0.2085,-0.2085,-0.2085,-0.2085,-0.2709,-0.2681,-0.2697,-0.2608,-0.2639,-0.2527,-0.2479,-0.2399,-0.2376,-0.2229,-0.2257,-0.2352,-0.2419,-0.2518,-0.2371,-0.2233,-0.2169,-0.2052,-0.2063,-0.2266,-0.2292,-0.2317,-0.227,-0.2073,-0.2073,-0.1852,-0.1851,-0.185]},{"header":{"parameterUnit":"m.s-1","parameterCategory":2,"la1":30.2991,"la2":30.254,"lo1":-89.0895,"lo2":-89.0444,"dy":0.0017,"dx":0.0017,"nx":28,"ny":28,"refTime":"2023-10-09T21:00:00:Z","depth":"0","parameterNumber":3,"parameterNumberName":"V-component_of_CURRENTS"},"data":[0,0,0,0,0,0,0,0,0,0,0,0,0,0,0,0,0,0,0,0,0,0,0,0,0,0,0,0,0,0,0,0,0,0,0,0,0,0,0,0,0,0,0,0,0,0,0,0,0,0,0,0,0,0,0,0,0,0,-0.0616,-0.0615,0,-0.0514,-0.0513,-0.0511,-0.0462,-0.0462,-0.0462,-0.0462,-0.0302,-0.0298,-0.0293,0,0,0,0,0,0,0,0,0,0,0,0,0,-0.0675,-0.0675,-0.0616,-0.0615,-0.0614,-0.0514,-0.0512,-0.0511,-0.0461,-0.0462,-0.0462,-0.0462,-0.0303,-0.0298,-0.0293,0,0,0,0,0,0,0,0,0,0,0,0,0,-0.0617,-0.0674,-0.0617,-0.0578,-0.0574,-0.0514,-0.0512,-0.051,-0.0461,-0.0462,-0.0462,-0.0462,-0.0305,-0.0299,-0.0292,-0.0246,0,0,-0.0272,-0.0269,0,0,0,0,0,0,0,0,-0.0621,-0.0615,-0.0585,-0.0581,-0.0576,-0.0502,-0.0474,-0.042,-0.0461,-0.0503,-0.0462,-0.0462,-0.0364,-0.0353,-0.0332,-0.0239,-0.0232,-0.0271,-0.0267,-0.0265,-0.0263,0,0,0,0,0,0,0,-0.0625,-0.0619,-0.0574,-0.0584,-0.0578,-0.0534,-0.0527,-0.0464,-0.0431,-0.0499,-0.0496,-0.0487,-0.0361,-0.0338,-0.0327,-0.023,-0.0272,-0.0266,-0.0262,-0.0259,-0.0069,-0.0068,0,0,0,0,0,0,-0.0645,-0.0623,-0.0577,-0.0571,-0.0601,-0.0534,-0.0525,-0.0524,-0.0433,-0.042,-0.0486,-0.0485,-0.0349,-0.0335,-0.0322,-0.0246,-0.0265,-0.0258,-0.0255,-0.007,-0.0068,-0.0067,0,0,0,0,0,0,-0.0647,-0.0643,-0.0582,-0.0595,-0.0585,-0.0533,-0.0532,-0.0522,-0.0498,-0.0424,-0.041,-0.0472,-0.0349,-0.0331,-0.0256,-0.0241,-0.0255,-0.0249,-0.0071,-0.0069,-0.0068,-0.0106,0,0,0,0,0,0,-0.065,-0.0644,-0.0648,-0.0597,-0.0585,-0.0542,-0.0531,-0.052,-0.0493,-0.0489,-0.0407,-0.0393,-0.0348,-0.0266,-0.025,-0.0232,-0.0244,-0.0072,-0.007,-0.0068,-0.0106,-0.0106,-0.0106,0,0,0,0,0,-0.0652,-0.0654,-0.0649,-0.0643,-0.0593,-0.0542,-0.0531,-0.0493,-0.0492,-0.0474,-0.0419,-0.0395,-0.0242,-0.026,-0.024,-0.022,-0.0073,-0.0071,-0.0068,-0.0106,-0.0106,-0.0106,0,0,0,0,0,0,-0.068,-0.0648,-0.0641,-0.0635,-0.0592,-0.0534,-0.052,-0.0495,-0.0439,-0.0438,-0.0374,-0.0354,-0.0284,-0.0244,-0.0266,-0.0159,-0.0156,-0.015,-0.0191,-0.019,-0.019,-0.0193,-0.0239,0,0,0,0,0,-0.0691,-0.0686,-0.0642,-0.0635,-0.0621,-0.0573,-0.0549,-0.0522,-0.0468,-0.0445,-0.0385,-0.0322,-0.0258,-0.022,-0.0157,-0.0095,-0.0061,-0.007,-0.007,-0.0071,-0.0059,-0.0011,-0.0006,-0.0059,-0.0059,-0.0059,0,0,-0.0702,-0.0682,-0.0681,-0.0641,-0.0612,-0.0577,-0.0559,-0.0525,-0.0485,-0.0434,-0.0365,-0.0315,-0.024,-0.0171,-0.0137,-0.0137,-0.0035,-0.0067,-0.0068,-0.0056,-0.0008,-0.0003,0.0001,-0.0057,-0.0058,-0.0058,0,0,-0.0714,-0.0705,-0.0703,-0.0666,-0.0623,-0.0585,-0.0578,-0.0518,-0.0483,-0.0411,-0.0369,-0.0306,-0.0207,-0.015,-0.0109,-0.0066,-0.0036,-0.0056,-0.0054,-0.0009,-0.0004,-0.0,0.0051,0.006,-0.0057,-0.0057,-0.0057,0,-0.0725,-0.072,-0.069,-0.0669,-0.064,-0.0592,-0.0569,-0.0518,-0.0436,-0.0405,-0.0392,-0.0251,-0.019,-0.0106,-0.0092,-0.0064,-0.004,-0.0067,-0.0011,-0.0006,-0.0001,0.0051,0.0061,-0.0059,-0.0058,-0.0058,-0.0058,0,-0.073,-0.0719,-0.0712,-0.0671,-0.0632,-0.0604,-0.0536,-0.0492,-0.045,-0.0399,-0.0312,-0.0229,-0.015,-0.0123,-0.0088,-0.0024,-0.0018,-0.002,-0.0019,0.0002,0.0055,0.0067,-0.0061,-0.006,-0.006,-0.0059,0,0,-0.0763,-0.0726,-0.0721,-0.0713,-0.0633,-0.0608,-0.0538,-0.0467,-0.0436,-0.0348,-0.0295,-0.0179,-0.0154,-0.0105,-0.0061,-0.0014,0.0046,-0.0008,-0.0005,0.003,0.0146,0.0123,0.0133,0.0038,0.004,0.0042,0.0168,0,-0.0773,-0.0764,-0.072,-0.069,-0.0682,-0.0605,-0.0547,-0.0474,-0.0407,-0.0341,-0.0251,-0.0185,-0.0141,-0.0117,-0.0058,0.0023,0.0075,0.0013,0.0133,0.0137,0.0103,0.0145,0.0144,0.0253,0.018,0.0182,0.0183,0,-0.0786,-0.0782,-0.0775,-0.0726,-0.0713,-0.0678,-0.0599,-0.0537,-0.0426,-0.0375,-0.0289,-0.0222,-0.0113,-0.0102,0.0061,0.0012,0.008,0.0138,0.0143,0.0146,0.0136,0.0223,0.0277,0.0413,0.0201,0.02,0.0198,0,-0.0851,-0.0812,-0.0821,-0.08,-0.0734,-0.0712,-0.0665,-0.0562,-0.0517,-0.0407,-0.0372,-0.0232,-0.0163,-0.0056,0.0087,0.0067,0.025,0.0237,0.0288,0.0287,0.0325,0.0324,0.0516,0.0341,0.0341,0.0341,0.034,0,-0.0884,-0.0884,-0.0864,-0.0868,-0.0871,-0.0788,-0.0762,-0.0693,-0.0593,-0.0533,-0.0413,-0.0338,-0.0154,-0.0023,0.0087,0.0235,0.0258,0.0307,0.0322,0.0311,0.0308,0.0458,0.053,0.0345,0.0344,0.0343,0.0342,0,-0.0953,-0.0935,-0.0954,-0.0921,-0.0911,-0.092,-0.0847,-0.0821,-0.0716,-0.0634,-0.0602,-0.0404,-0.0229,-0.0053,0.015,0.0236,0.045,0.0412,0.0391,0.04,0.0538,0.0608,0.0836,0.0875,0.0486,0.0487,0.0487,0,-0.0987,-0.1012,-0.1026,-0.1053,-0.1045,-0.1037,-0.1021,-0.0908,-0.0858,-0.0666,-0.0628,-0.0436,-0.029,-0.0003,0.0185,0.0379,0.0491,0.0483,0.0445,0.0567,0.0657,0.0713,0.0733,0.0494,0.0494,0.0494,0.0495,0,-0.1064,-0.1081,-0.1113,-0.1169,-0.1185,-0.1174,-0.1129,-0.1099,-0.0932,-0.0844,-0.0663,-0.0534,-0.0247,-0.0004,0.0236,0.0346,0.0575,0.0488,0.0638,0.0704,0.0761,0.0797,0.0395,0.0496,0.0496,0.0496,0.0496,0.0496,-0.1132,-0.1192,-0.124,-0.1285,-0.13,-0.1272,-0.124,-0.117,-0.1073,-0.09,-0.0745,-0.0566,-0.017,0.0164,0.0309,0.0611,0.0595,0.0687,0.0771,0.0824,0.0838,0.0431,0.0521,0.0521,0.0521,0.0521,0.0521,0,-0.1205,-0.1266,-0.1334,-0.1371,-0.1375,-0.1347,-0.1274,-0.1212,-0.1094,-0.0979,-0.0822,-0.0431,-0.0071,0.0294,0.0756,0.0907,0.0939,0.0992,0.1101,0.111,0.078,0.0752,0.0868,0.0868,0.0868,0.0868,0.0867,0.0867,-0.1248,-0.1347,-0.1377,-0.1411,-0.141,-0.135,-0.1289,-0.1212,-0.1112,-0.0913,-0.0721,-0.0587,0.0026,0.0885,0.1307,0.1304,0.1446,0.1426,0.1503,0.1308,0.1286,0.1266,0.1258,0.1478,0.1479,0.1789,0.1793,0.1795]}],[{"header":{"parameterUnit":"m.s-1","parameterCategory":2,"la1":30.2991,"la2":30.254,"lo1":-89.0895,"lo2":-89.0444,"dy":0.0017,"dx":0.0017,"nx":28,"ny":28,"refTime":"2023-10-09T21:00:00:Z","depth":"2","parameterNumber":2,"parameterNumberName":"U-component_of_CURRENTS"},"data":[0,0,0,0,0,0,0,0,0,0,0,0,0,0,0,0,0,0,0,0,0,0,0,0,0,0,0,0,0,0,0,0,0,0,0,0,0,0,0,0,0,0,0,0,0,0,0,0,0,0,0,0,0,0,0,0,0,0,-0.2976,-0.2977,0,-0.2938,-0.2937,-0.2936,-0.2987,-0.299,-0.2992,-0.2995,-0.3091,-0.3091,-0.3091,0,0,0,0,0,0,0,0,0,0,0,0,0,-0.2939,-0.2939,-0.2976,-0.2977,-0.2977,-0.2938,-0.2937,-0.2935,-0.2987,-0.299,-0.2993,-0.2996,-0.3091,-0.3091,-0.3091,0,0,0,0,0,0,0,0,0,0,0,0,0,-0.2925,-0.2939,-0.2976,-0.3004,-0.3007,-0.2938,-0.2937,-0.2935,-0.2986,-0.299,-0.2994,-0.2997,-0.3091,-0.3091,-0.3091,-0.3014,0,0,-0.3092,-0.3092,0,0,0,0,0,0,0,0,-0.2926,-0.2926,-0.3,-0.3002,-0.3005,-0.2979,-0.2959,-0.2971,-0.2985,-0.2985,-0.2995,-0.2999,-0.3068,-0.3071,-0.3041,-0.3019,-0.3023,-0.3092,-0.3092,-0.3092,-0.3092,0,0,0,0,0,0,0,-0.2927,-0.2927,-0.2953,-0.3,-0.3003,-0.2965,-0.2968,-0.2959,-0.3001,-0.2985,-0.2991,-0.2998,-0.307,-0.304,-0.3044,-0.3024,-0.3092,-0.3092,-0.3092,-0.3092,-0.3006,-0.3004,0,0,0,0,0,0,-0.2952,-0.2928,-0.2954,-0.2952,-0.2984,-0.2964,-0.2967,-0.2976,-0.2999,-0.3007,-0.2995,-0.3001,-0.3038,-0.3044,-0.3048,-0.3089,-0.3092,-0.3092,-0.3092,-0.3008,-0.3005,-0.3003,0,0,0,0,0,0,-0.2952,-0.2955,-0.2956,-0.2946,-0.2945,-0.2963,-0.2971,-0.2974,-0.2982,-0.3006,-0.3017,-0.3008,-0.3041,-0.3048,-0.3078,-0.3089,-0.3092,-0.3093,-0.3011,-0.3007,-0.3004,-0.3089,0,0,0,0,0,0,-0.2951,-0.2955,-0.2955,-0.2948,-0.2947,-0.2958,-0.2968,-0.297,-0.2983,-0.2991,-0.3019,-0.303,-0.3045,-0.3078,-0.3079,-0.309,-0.3093,-0.3014,-0.301,-0.3005,-0.3089,-0.3088,-0.3088,0,0,0,0,0,-0.2949,-0.2944,-0.2956,-0.2959,-0.2952,-0.2959,-0.2955,-0.2973,-0.298,-0.2991,-0.3008,-0.3031,-0.3048,-0.3077,-0.3078,-0.309,-0.3016,-0.3011,-0.3006,-0.3089,-0.3088,-0.3088,0,0,0,0,0,0,-0.2932,-0.2949,-0.2962,-0.2964,-0.2983,-0.2973,-0.2973,-0.2978,-0.2987,-0.3009,-0.302,-0.3031,-0.305,-0.3037,-0.3068,-0.3037,-0.3026,-0.302,-0.3088,-0.3088,-0.3087,-0.3084,-0.3093,0,0,0,0,0,-0.2927,-0.2934,-0.295,-0.2958,-0.2966,-0.2966,-0.2965,-0.299,-0.3002,-0.301,-0.3025,-0.3022,-0.301,-0.3033,-0.3017,-0.3018,-0.3013,-0.301,-0.301,-0.301,-0.2999,-0.3003,-0.3005,-0.2985,-0.2985,-0.2985,0,0,-0.2928,-0.2936,-0.2942,-0.2956,-0.2962,-0.2976,-0.2976,-0.3,-0.3012,-0.3018,-0.3034,-0.3027,-0.3003,-0.3008,-0.3013,-0.3019,-0.3012,-0.3003,-0.3005,-0.2993,-0.2998,-0.3001,-0.3004,-0.2981,-0.2982,-0.2983,0,0,-0.2939,-0.2939,-0.2954,-0.297,-0.3001,-0.2995,-0.3011,-0.3021,-0.3029,-0.3043,-0.3033,-0.3033,-0.3028,-0.3013,-0.3002,-0.2974,-0.3001,-0.2966,-0.2989,-0.2995,-0.2998,-0.3001,-0.302,-0.3024,-0.298,-0.298,-0.298,0,-0.2929,-0.2963,-0.296,-0.2985,-0.3,-0.301,-0.3037,-0.3027,-0.3049,-0.3068,-0.3071,-0.303,-0.302,-0.3007,-0.2995,-0.298,-0.2997,-0.3015,-0.3003,-0.3005,-0.3007,-0.3025,-0.3028,-0.2983,-0.2983,-0.2983,-0.2982,0,-0.2963,-0.2992,-0.3003,-0.3033,-0.3041,-0.3072,-0.3076,-0.3092,-0.3098,-0.3107,-0.3107,-0.3065,-0.3055,-0.3031,-0.3013,-0.3002,-0.3016,-0.3004,-0.3028,-0.3015,-0.3033,-0.3035,-0.2988,-0.2987,-0.2986,-0.2985,0,0,-0.2937,-0.3008,-0.3022,-0.3046,-0.3077,-0.3086,-0.3109,-0.3136,-0.3173,-0.3158,-0.3186,-0.3118,-0.3113,-0.3088,-0.3051,-0.3037,-0.3063,-0.3035,-0.3033,-0.3094,-0.3104,-0.2955,-0.2943,-0.3078,-0.3078,-0.3078,-0.3123,0,-0.2966,-0.3027,-0.3054,-0.3103,-0.3122,-0.3146,-0.3165,-0.3197,-0.322,-0.325,-0.3199,-0.3203,-0.3129,-0.3134,-0.3105,-0.307,-0.3068,-0.3052,-0.3068,-0.3068,-0.2971,-0.2939,-0.272,-0.2726,-0.3125,-0.3125,-0.3126,0,-0.2986,-0.3027,-0.3085,-0.3143,-0.3156,-0.3185,-0.3237,-0.326,-0.3309,-0.3334,-0.3335,-0.3318,-0.3271,-0.3211,-0.3152,-0.316,-0.3131,-0.3097,-0.3098,-0.2924,-0.2919,-0.279,-0.2715,-0.3129,-0.3129,-0.3129,-0.3128,0,-0.2948,-0.3039,-0.3083,-0.3104,-0.317,-0.3205,-0.3238,-0.3302,-0.3333,-0.3392,-0.3427,-0.3399,-0.3366,-0.3322,-0.3215,-0.3221,-0.3154,-0.3166,-0.3004,-0.2996,-0.2785,-0.2755,-0.3133,-0.3133,-0.3133,-0.3133,-0.3132,0,-0.294,-0.2983,-0.3081,-0.3095,-0.3165,-0.3207,-0.3277,-0.3326,-0.3395,-0.3413,-0.3455,-0.342,-0.3392,-0.3341,-0.3267,-0.3113,-0.32,-0.2988,-0.2981,-0.2804,-0.2777,-0.3096,-0.3091,-0.3134,-0.3134,-0.3134,-0.3133,0,-0.2885,-0.296,-0.3,-0.3093,-0.3139,-0.3179,-0.3287,-0.3324,-0.3408,-0.3426,-0.3441,-0.346,-0.3366,-0.3317,-0.3242,-0.315,-0.3049,-0.2979,-0.2768,-0.2732,-0.2895,-0.2893,-0.2842,-0.2837,-0.2832,-0.2829,-0.2825,0,-0.2849,-0.287,-0.2973,-0.302,-0.3072,-0.3157,-0.3205,-0.331,-0.3339,-0.3388,-0.3366,-0.3341,-0.317,-0.3029,-0.2933,-0.2809,-0.2904,-0.257,-0.2502,-0.2857,-0.2858,-0.2864,-0.2868,-0.2287,-0.228,-0.2274,-0.2269,0,-0.2765,-0.2811,-0.284,-0.2925,-0.2992,-0.3042,-0.3116,-0.3136,-0.3204,-0.3168,-0.3018,-0.2885,-0.2803,-0.2552,-0.2496,-0.239,-0.2573,-0.2441,-0.2869,-0.237,-0.233,-0.2332,-0.2356,-0.2216,-0.2221,-0.2225,-0.2228,-0.223,-0.2675,-0.2664,-0.2702,-0.2757,-0.2831,-0.2811,-0.2776,-0.2792,-0.2698,-0.2607,-0.2658,-0.2433,-0.2402,-0.2155,-0.2025,-0.2016,-0.2177,-0.2108,-0.2129,-0.2156,-0.2058,-0.2009,-0.182,-0.1823,-0.1825,-0.1827,-0.1829,0,-0.2531,-0.2518,-0.2533,-0.2512,-0.247,-0.2602,-0.2609,-0.2502,-0.2241,-0.2281,-0.2112,-0.1844,-0.1696,-0.1729,-0.162,-0.1563,-0.1567,-0.1503,-0.1537,-0.1588,-0.1634,-0.1514,-0.113,-0.1128,-0.1126,-0.1125,0,0,-0.2448,-0.2371,-0.2315,-0.2118,-0.2121,-0.2001,-0.195,-0.1801,-0.1796,-0.1575,-0.153,-0.1703,-0.1688,-0.1452,-0.1353,-0.1251,-0.1413,-0.1174,-0.173,-0.1822,-0.1867,-0.1966,-0.1834,0,0,0,0,0]},{"header":{"parameterUnit":"m.s-1","parameterCategory":2,"la1":30.2991,"la2":30.254,"lo1":-89.0895,"lo2":-89.0444,"dy":0.0017,"dx":0.0017,"nx":28,"ny":28,"refTime":"2023-10-09T21:00:00:Z","depth":"2","parameterNumber":3,"parameterNumberName":"V-component_of_CURRENTS"},"data":[0,0,0,0,0,0,0,0,0,0,0,0,0,0,0,0,0,0,0,0,0,0,0,0,0,0,0,0,0,0,0,0,0,0,0,0,0,0,0,0,0,0,0,0,0,0,0,0,0,0,0,0,0,0,0,0,0,0,-0.0514,-0.0513,0,-0.0374,-0.0372,-0.037,-0.0319,-0.032,-0.0321,-0.0322,-0.0215,-0.0211,-0.0207,0,0,0,0,0,0,0,0,0,0,0,0,0,-0.056,-0.056,-0.0515,-0.0513,-0.0512,-0.0374,-0.0372,-0.0369,-0.0319,-0.032,-0.0321,-0.0322,-0.0216,-0.0212,-0.0207,0,0,0,0,0,0,0,0,0,0,0,0,0,-0.0488,-0.056,-0.0515,-0.0474,-0.0469,-0.0375,-0.0372,-0.0369,-0.0319,-0.032,-0.0321,-0.0323,-0.0217,-0.0212,-0.0206,-0.0143,0,0,-0.0189,-0.0187,0,0,0,0,0,0,0,0,-0.0492,-0.0486,-0.0481,-0.0477,-0.0471,-0.037,-0.0349,-0.0297,-0.0318,-0.037,-0.0322,-0.0324,-0.0272,-0.0262,-0.0224,-0.0138,-0.0133,-0.0189,-0.0185,-0.0183,-0.0181,0,0,0,0,0,0,0,-0.0497,-0.049,-0.0454,-0.048,-0.0474,-0.0402,-0.0394,-0.0337,-0.0311,-0.0366,-0.0363,-0.0355,-0.0269,-0.023,-0.0222,-0.0131,-0.0189,-0.0184,-0.018,-0.0178,-0.0011,-0.001,0,0,0,0,0,0,-0.0533,-0.0496,-0.0458,-0.045,-0.0491,-0.0401,-0.0392,-0.0397,-0.0311,-0.0301,-0.0354,-0.0354,-0.0239,-0.0228,-0.0218,-0.017,-0.0183,-0.0178,-0.0174,-0.0012,-0.001,-0.0009,0,0,0,0,0,0,-0.0535,-0.0532,-0.0464,-0.0473,-0.046,-0.0401,-0.0405,-0.0393,-0.0367,-0.0303,-0.0292,-0.0342,-0.024,-0.0226,-0.0177,-0.0165,-0.0175,-0.017,-0.0013,-0.0011,-0.001,-0.0053,0,0,0,0,0,0,-0.0537,-0.0533,-0.0544,-0.0476,-0.0461,-0.0423,-0.0404,-0.039,-0.0362,-0.0359,-0.0289,-0.0279,-0.024,-0.0186,-0.0171,-0.0157,-0.0166,-0.0014,-0.0012,-0.001,-0.0053,-0.0053,-0.0053,0,0,0,0,0,-0.0539,-0.0548,-0.0546,-0.0541,-0.0481,-0.0424,-0.0408,-0.0366,-0.036,-0.0347,-0.03,-0.0282,-0.0163,-0.018,-0.0163,-0.0148,-0.0015,-0.0013,-0.001,-0.0053,-0.0053,-0.0053,0,0,0,0,0,0,-0.0568,-0.0542,-0.0539,-0.0539,-0.0496,-0.0418,-0.0402,-0.0371,-0.0319,-0.0324,-0.0265,-0.0251,-0.0201,-0.0165,-0.0186,-0.0092,-0.0086,-0.008,-0.0124,-0.0124,-0.0124,-0.0122,-0.0161,0,0,0,0,0,-0.0584,-0.0592,-0.0544,-0.0546,-0.053,-0.0468,-0.044,-0.0412,-0.0359,-0.0337,-0.0285,-0.023,-0.0171,-0.0146,-0.0089,-0.0038,-0.0001,-0.0016,-0.0016,-0.0017,-0.0002,0.0048,0.0054,-0.0001,-0.0001,-0.0001,0,0,-0.0596,-0.0584,-0.0588,-0.0554,-0.0518,-0.048,-0.0453,-0.042,-0.038,-0.0333,-0.0271,-0.0227,-0.0157,-0.0099,-0.0074,-0.0074,0.0019,-0.0014,-0.0015,0.0001,0.0051,0.0057,0.0061,0.0,0.0,-0.0,0,0,-0.0617,-0.0615,-0.0623,-0.0587,-0.0547,-0.05,-0.0497,-0.0427,-0.0392,-0.0327,-0.0285,-0.0233,-0.0145,-0.0088,-0.0048,-0.0011,0.0017,-0.0004,-0.0003,0.0044,0.0049,0.0054,0.0102,0.0111,-0.0007,-0.0007,-0.0007,0,-0.0628,-0.0637,-0.0612,-0.0595,-0.0565,-0.0514,-0.0491,-0.0434,-0.0354,-0.0325,-0.0319,-0.0179,-0.0128,-0.0045,-0.0033,-0.001,0.0014,-0.0015,0.0042,0.0048,0.0053,0.0102,0.0112,-0.0009,-0.0009,-0.0008,-0.0008,0,-0.0645,-0.0643,-0.0639,-0.0607,-0.0566,-0.054,-0.0467,-0.0427,-0.0384,-0.0328,-0.0249,-0.017,-0.0093,-0.0068,-0.0035,0.003,0.0033,0.0033,0.0035,0.0055,0.0106,0.0118,-0.0011,-0.0011,-0.001,-0.001,0,0,-0.0685,-0.0658,-0.0657,-0.0649,-0.0572,-0.0545,-0.0477,-0.0404,-0.0371,-0.0289,-0.0235,-0.0123,-0.0099,-0.0051,-0.0007,0.0042,0.01,0.0045,0.0049,0.0081,0.0199,0.017,0.018,0.0092,0.0094,0.0096,0.0217,0,-0.0702,-0.0703,-0.0664,-0.0636,-0.0624,-0.0547,-0.0488,-0.0416,-0.035,-0.0285,-0.0196,-0.013,-0.0087,-0.0066,-0.0004,0.0078,0.013,0.0068,0.0188,0.0192,0.0152,0.0193,0.0162,0.0264,0.0229,0.0231,0.0232,0,-0.0725,-0.0727,-0.0722,-0.067,-0.0654,-0.062,-0.0538,-0.0477,-0.0368,-0.0319,-0.0236,-0.0171,-0.0062,-0.005,0.0117,0.0066,0.0133,0.0194,0.0199,0.0199,0.0185,0.0242,0.0287,0.0252,0.0251,0.0249,0.0248,0,-0.0788,-0.0756,-0.0765,-0.0745,-0.0676,-0.0655,-0.0607,-0.0504,-0.0458,-0.0353,-0.032,-0.0181,-0.0113,-0.0004,0.0138,0.0119,0.0306,0.0294,0.0339,0.0337,0.0353,0.0349,0.0402,0.0402,0.0402,0.0401,0.0401,0,-0.0821,-0.0824,-0.0808,-0.081,-0.0812,-0.0729,-0.0702,-0.0633,-0.0536,-0.0476,-0.036,-0.0279,-0.0103,0.0028,0.0138,0.0286,0.0312,0.0359,0.0372,0.0336,0.033,0.0352,0.0344,0.0406,0.0405,0.0404,0.0403,0,-0.0886,-0.0873,-0.0889,-0.0856,-0.0848,-0.0856,-0.0786,-0.0756,-0.0656,-0.0575,-0.0546,-0.0345,-0.0172,-0.0003,0.02,0.0285,0.0422,0.046,0.0407,0.0411,0.0421,0.041,0.0526,0.0526,0.0526,0.0526,0.0526,0,-0.0915,-0.0939,-0.0954,-0.098,-0.0973,-0.0967,-0.0948,-0.0842,-0.0792,-0.0599,-0.0559,-0.0373,-0.0237,0.0045,0.023,0.041,0.0435,0.0489,0.0449,0.0435,0.0437,0.0426,0.0415,0.0463,0.0463,0.0463,0.0462,0,-0.0979,-0.1001,-0.103,-0.1084,-0.1098,-0.1084,-0.1042,-0.1011,-0.085,-0.0773,-0.0597,-0.0481,-0.0207,0.0012,0.0238,0.0343,0.0454,0.0483,0.0514,0.0414,0.038,0.0379,0.0371,0.0459,0.0459,0.0459,0.046,0.046,-0.104,-0.109,-0.1138,-0.1178,-0.1192,-0.1156,-0.1124,-0.1058,-0.0968,-0.08,-0.0669,-0.0497,-0.0249,0.0039,0.0246,0.0433,0.0415,0.0475,0.0476,0.0477,0.0425,0.0391,0.0463,0.0464,0.0464,0.0464,0.0464,0,-0.1107,-0.1156,-0.1208,-0.1234,-0.1228,-0.1215,-0.1141,-0.1079,-0.0967,-0.0858,-0.0724,-0.0481,-0.0247,0.0008,0.0283,0.0445,0.045,0.0489,0.0478,0.0478,0.048,0.0428,0.0468,0.0469,0.047,0.047,0,0,-0.1144,-0.1227,-0.1237,-0.124,-0.1235,-0.1183,-0.1125,-0.1049,-0.0958,-0.0842,-0.0735,-0.0605,-0.0281,-0.0075,0.0162,0.0328,0.0356,0.0338,0.0312,0.0271,0.027,0.0443,0.036,0,0,0,0,0]}],[{"header":{"parameterUnit":"m.s-1","parameterCategory":2,"la1":30.2991,"la2":30.254,"lo1":-89.0895,"lo2":-89.0444,"dy":0.0017,"dx":0.0017,"nx":28,"ny":28,"refTime":"2023-10-09T21:00:00:Z","depth":"4","parameterNumber":2,"parameterNumberName":"U-component_of_CURRENTS"},"data":[0,0,0,0,0,0,0,0,0,0,0,0,0,0,0,0,0,0,0,0,0,0,0,0,0,0,0,0,0,0,0,0,0,0,0,0,0,0,0,0,0,0,0,0,0,0,0,0,0,0,0,0,0,0,0,0,0,0,-0.042,-0.042,0,-0.0474,-0.0475,-0.0476,-0.0512,-0.0512,-0.0512,-0.0511,-0.0578,-0.0579,-0.0581,0,0,0,0,0,0,0,0,0,0,0,0,0,-0.0371,-0.0372,-0.042,-0.042,-0.042,-0.0474,-0.0475,-0.0476,-0.0512,-0.0512,-0.0512,-0.0511,-0.0577,-0.0579,-0.0581,0,0,0,0,0,0,0,0,0,0,0,0,0,-0.0409,-0.0372,-0.0419,-0.0442,-0.0445,-0.0474,-0.0475,-0.0476,-0.0512,-0.0512,-0.0511,-0.0511,-0.0576,-0.0579,-0.0582,-0.06,0,0,-0.059,-0.0591,0,0,0,0,0,0,0,0,-0.0406,-0.0411,-0.0438,-0.0441,-0.0443,-0.0483,-0.0482,-0.0517,-0.0512,-0.049,-0.0511,-0.0511,-0.0545,-0.055,-0.0565,-0.0603,-0.0606,-0.059,-0.0592,-0.0593,-0.0594,0,0,0,0,0,0,0,-0.0404,-0.0409,-0.0444,-0.0439,-0.0442,-0.0458,-0.0463,-0.0489,-0.052,-0.0491,-0.0493,-0.0494,-0.0547,-0.0562,-0.0567,-0.0607,-0.059,-0.0592,-0.0594,-0.0595,-0.0708,-0.071,0,0,0,0,0,0,-0.0389,-0.0406,-0.0443,-0.0446,-0.0421,-0.0459,-0.0465,-0.0473,-0.0519,-0.0525,-0.0494,-0.0496,-0.0558,-0.0564,-0.0569,-0.0673,-0.0593,-0.0596,-0.0597,-0.0707,-0.0709,-0.071,0,0,0,0,0,0,-0.0388,-0.0393,-0.044,-0.0424,-0.0431,-0.0459,-0.0468,-0.0474,-0.0497,-0.0521,-0.0528,-0.0511,-0.0558,-0.0566,-0.0606,-0.0673,-0.0597,-0.0599,-0.0705,-0.0708,-0.0709,-0.0829,0,0,0,0,0,0,-0.0387,-0.0392,-0.0388,-0.0423,-0.0431,-0.0459,-0.0468,-0.0475,-0.0495,-0.0498,-0.0537,-0.0543,-0.0559,-0.0602,-0.0609,-0.0675,-0.0601,-0.0704,-0.0706,-0.0709,-0.0824,-0.0835,-0.0845,0,0,0,0,0,-0.0385,-0.0383,-0.0387,-0.0391,-0.0427,-0.0459,-0.0465,-0.0486,-0.0496,-0.0507,-0.054,-0.0542,-0.0623,-0.0606,-0.0613,-0.0682,-0.0702,-0.0706,-0.0709,-0.0819,-0.0833,-0.0845,0,0,0,0,0,0,-0.0361,-0.0387,-0.0393,-0.0399,-0.0425,-0.0464,-0.0471,-0.049,-0.0526,-0.0533,-0.0558,-0.0567,-0.0626,-0.0625,-0.0604,-0.0716,-0.0664,-0.0669,-0.0745,-0.0759,-0.0769,-0.0799,-0.0604,0,0,0,0,0,-0.0352,-0.0361,-0.0388,-0.0396,-0.0406,-0.0441,-0.0454,-0.0476,-0.0512,-0.0528,-0.0557,-0.0593,-0.0645,-0.0676,-0.0699,-0.0763,-0.0738,-0.0808,-0.0819,-0.0829,-0.0855,-0.0889,-0.0907,-0.072,-0.072,-0.072,0,0,-0.0348,-0.036,-0.0367,-0.0391,-0.0414,-0.0435,-0.0451,-0.048,-0.051,-0.0529,-0.0578,-0.0623,-0.0662,-0.0738,-0.0766,-0.0751,-0.0854,-0.0833,-0.0841,-0.0863,-0.0895,-0.0913,-0.0929,-0.0722,-0.0722,-0.0722,0,0,-0.0344,-0.0354,-0.0359,-0.0381,-0.041,-0.0435,-0.0443,-0.0489,-0.0519,-0.0572,-0.0608,-0.0693,-0.0739,-0.0813,-0.085,-0.0929,-0.0899,-0.0935,-0.1039,-0.1072,-0.1088,-0.1102,-0.1035,-0.1042,-0.0956,-0.0957,-0.0957,0,-0.0333,-0.0345,-0.0367,-0.038,-0.0395,-0.0434,-0.0452,-0.0492,-0.0549,-0.0582,-0.0591,-0.0743,-0.0782,-0.092,-0.0976,-0.0961,-0.0939,-0.0994,-0.1089,-0.1103,-0.1116,-0.1043,-0.105,-0.0963,-0.0962,-0.0961,-0.0961,0,-0.0337,-0.0347,-0.0355,-0.0382,-0.0405,-0.0429,-0.048,-0.0517,-0.056,-0.0608,-0.0734,-0.0831,-0.0939,-0.0974,-0.1019,-0.1158,-0.1093,-0.1087,-0.1063,-0.1142,-0.1059,-0.1064,-0.0972,-0.0969,-0.0967,-0.0966,0,0,-0.0305,-0.0347,-0.0348,-0.0359,-0.0409,-0.0428,-0.0484,-0.0544,-0.0589,-0.0694,-0.0788,-0.0957,-0.105,-0.1103,-0.1193,-0.1261,-0.1335,-0.1247,-0.1246,-0.1189,-0.1345,-0.1303,-0.1302,-0.1361,-0.1364,-0.1366,-0.1229,0,-0.0298,-0.0311,-0.0343,-0.0369,-0.0381,-0.0436,-0.0485,-0.0551,-0.0618,-0.0714,-0.0874,-0.1008,-0.1088,-0.1205,-0.1291,-0.1339,-0.1365,-0.1368,-0.1268,-0.1263,-0.1229,-0.1315,-0.1376,-0.1233,-0.1234,-0.1234,-0.1235,0,-0.028,-0.0293,-0.0308,-0.0361,-0.0373,-0.0398,-0.0474,-0.0539,-0.0674,-0.0751,-0.0933,-0.1055,-0.1269,-0.1298,-0.1424,-0.1429,-0.1411,-0.1409,-0.1403,-0.1339,-0.1236,-0.1149,-0.1243,-0.1242,-0.1242,-0.1241,-0.1241,0,-0.0225,-0.0266,-0.0274,-0.029,-0.0357,-0.0381,-0.0437,-0.054,-0.0601,-0.0819,-0.0887,-0.113,-0.1262,-0.1344,-0.1419,-0.1436,-0.1458,-0.145,-0.1358,-0.1347,-0.1368,-0.1355,-0.148,-0.1481,-0.1481,-0.1481,-0.1482,0,-0.0192,-0.0199,-0.0246,-0.0247,-0.0274,-0.0351,-0.0406,-0.0497,-0.0636,-0.0708,-0.0943,-0.104,-0.129,-0.1352,-0.1399,-0.1404,-0.1437,-0.1395,-0.1348,-0.1407,-0.1401,-0.1366,-0.1355,-0.1476,-0.1477,-0.1478,-0.1479,0,-0.0131,-0.0161,-0.0177,-0.0232,-0.0242,-0.0277,-0.0368,-0.0421,-0.0562,-0.0668,-0.0768,-0.098,-0.1104,-0.1239,-0.133,-0.1345,-0.1365,-0.1321,-0.1319,-0.1268,-0.1216,-0.1212,-0.1231,-0.1229,-0.1228,-0.1227,-0.1225,0,-0.0107,-0.0097,-0.0138,-0.0147,-0.0169,-0.022,-0.0253,-0.0389,-0.0444,-0.0598,-0.0641,-0.0814,-0.0955,-0.1032,-0.1176,-0.1248,-0.1249,-0.122,-0.132,-0.1258,-0.1209,-0.1207,-0.1205,-0.1223,-0.1223,-0.1222,-0.1222,0,-0.0058,-0.0067,-0.0107,-0.0117,-0.0138,-0.016,-0.0214,-0.0235,-0.0391,-0.0469,-0.0585,-0.0728,-0.0817,-0.0994,-0.1062,-0.1102,-0.1265,-0.1205,-0.121,-0.1303,-0.1248,-0.12,-0.12,-0.1217,-0.1218,-0.1218,-0.1218,0,-0.0047,-0.0074,-0.0117,-0.0133,-0.0167,-0.016,-0.0156,-0.0228,-0.0306,-0.0463,-0.0458,-0.0638,-0.0761,-0.09,-0.0942,-0.1041,-0.1063,-0.1077,-0.1088,-0.1095,-0.1142,-0.1057,-0.0949,0,0,0,0,0,-0.0032,-0.0083,-0.0111,-0.0163,-0.0188,-0.0178,-0.0184,-0.0186,-0.0259,-0.0336,-0.0422,-0.0528,-0.0702,-0.0776,-0.0867,-0.089,-0.1055,-0.099,-0.1071,-0.1188,-0.1194,-0.1276,0,0,0,0,0,0,-0.0054,-0.0096,-0.0137,-0.02,-0.021,-0.0226,-0.0224,-0.0221,-0.0276,-0.0346,-0.0448,-0.0519,-0.0693,-0.0672,-0.0868,-0.0894,-0.0945,-0.1083,-0.1083,-0.1185,-0.119,-0.1195,-0.1282,0,0,0,0,0]},{"header":{"parameterUnit":"m.s-1","parameterCategory":2,"la1":30.2991,"la2":30.254,"lo1":-89.0895,"lo2":-89.0444,"dy":0.0017,"dx":0.0017,"nx":28,"ny":28,"refTime":"2023-10-09T21:00:00:Z","depth":"4","parameterNumber":3,"parameterNumberName":"V-component_of_CURRENTS"},"data":[0,0,0,0,0,0,0,0,0,0,0,0,0,0,0,0,0,0,0,0,0,0,0,0,0,0,0,0,0,0,0,0,0,0,0,0,0,0,0,0,0,0,0,0,0,0,0,0,0,0,0,0,0,0,0,0,0,0,-0.026,-0.0259,0,-0.025,-0.025,-0.025,-0.0212,-0.0211,-0.021,-0.0209,-0.0176,-0.0176,-0.0176,0,0,0,0,0,0,0,0,0,0,0,0,0,-0.023,-0.0231,-0.026,-0.0259,-0.0259,-0.025,-0.025,-0.025,-0.0212,-0.0211,-0.0209,-0.0208,-0.0176,-0.0176,-0.0176,0,0,0,0,0,0,0,0,0,0,0,0,0,-0.0236,-0.0231,-0.026,-0.0237,-0.0235,-0.025,-0.025,-0.025,-0.0212,-0.0211,-0.0209,-0.0208,-0.0176,-0.0176,-0.0176,-0.021,0,0,-0.0177,-0.0177,0,0,0,0,0,0,0,0,-0.0236,-0.0237,-0.0241,-0.0239,-0.0236,-0.0228,-0.0227,-0.0235,-0.0213,-0.0223,-0.0209,-0.0207,-0.0191,-0.019,-0.0195,-0.0208,-0.0207,-0.0177,-0.0177,-0.0177,-0.0177,0,0,0,0,0,0,0,-0.0235,-0.0238,-0.0258,-0.0241,-0.0238,-0.0222,-0.0222,-0.0229,-0.0218,-0.0222,-0.0219,-0.0215,-0.019,-0.0195,-0.0194,-0.0206,-0.0177,-0.0177,-0.0177,-0.0177,-0.0248,-0.025,0,0,0,0,0,0,-0.0235,-0.0238,-0.0258,-0.0258,-0.023,-0.0224,-0.0223,-0.0234,-0.0218,-0.0214,-0.0216,-0.0213,-0.0196,-0.0194,-0.0193,-0.0224,-0.0177,-0.0177,-0.0177,-0.0246,-0.0249,-0.0251,0,0,0,0,0,0,-0.0235,-0.0238,-0.0259,-0.0244,-0.0245,-0.0226,-0.0239,-0.0235,-0.0232,-0.0213,-0.0208,-0.0215,-0.0194,-0.0192,-0.0207,-0.0223,-0.0177,-0.0178,-0.0244,-0.0247,-0.025,-0.0292,0,0,0,0,0,0,-0.0234,-0.0238,-0.0245,-0.0245,-0.0246,-0.0274,-0.024,-0.0236,-0.0231,-0.0227,-0.0212,-0.0207,-0.0193,-0.0207,-0.0207,-0.0222,-0.0178,-0.0242,-0.0246,-0.0249,-0.0288,-0.0295,-0.0302,0,0,0,0,0,-0.0234,-0.0252,-0.0246,-0.0248,-0.0258,-0.0275,-0.0275,-0.0256,-0.0233,-0.0245,-0.0235,-0.0207,-0.0228,-0.0209,-0.0208,-0.0224,-0.0241,-0.0245,-0.0249,-0.0285,-0.0294,-0.0302,0,0,0,0,0,0,-0.0242,-0.025,-0.0243,-0.0262,-0.027,-0.0268,-0.0272,-0.026,-0.0263,-0.0256,-0.0231,-0.0228,-0.0251,-0.0238,-0.0217,-0.0257,-0.023,-0.0234,-0.0258,-0.0266,-0.0273,-0.0245,-0.0178,0,0,0,0,0,-0.0248,-0.0268,-0.0269,-0.0288,-0.0289,-0.0281,-0.0283,-0.0278,-0.0278,-0.0276,-0.0267,-0.0263,-0.0271,-0.0267,-0.0279,-0.0297,-0.0266,-0.0309,-0.0315,-0.0321,-0.0301,-0.0231,-0.0227,-0.0264,-0.0264,-0.0264,0,0,-0.0258,-0.0264,-0.0274,-0.0291,-0.0291,-0.0313,-0.0279,-0.0293,-0.0316,-0.0275,-0.0302,-0.0293,-0.0286,-0.0311,-0.0318,-0.0296,-0.0316,-0.0326,-0.0331,-0.0307,-0.0234,-0.023,-0.0226,-0.0266,-0.0266,-0.0265,0,0,-0.0289,-0.0291,-0.0315,-0.0327,-0.0335,-0.0338,-0.0342,-0.0348,-0.0352,-0.0382,-0.0358,-0.0359,-0.0373,-0.0366,-0.0364,-0.0419,-0.0362,-0.042,-0.0417,-0.035,-0.0345,-0.034,-0.0377,-0.0375,-0.0412,-0.0412,-0.0412,0,-0.0298,-0.0331,-0.0325,-0.0351,-0.0365,-0.035,-0.0383,-0.0394,-0.0408,-0.042,-0.0399,-0.0415,-0.0403,-0.0419,-0.0418,-0.0432,-0.0398,-0.0383,-0.0354,-0.0347,-0.0341,-0.038,-0.0376,-0.0414,-0.0414,-0.0414,-0.0413,0,-0.0344,-0.0373,-0.0388,-0.042,-0.0437,-0.0465,-0.0477,-0.0498,-0.0496,-0.0502,-0.0524,-0.0504,-0.0499,-0.0502,-0.0462,-0.0427,-0.0425,-0.0376,-0.0321,-0.0339,-0.0382,-0.0377,-0.0418,-0.0417,-0.0416,-0.0416,0,0,-0.0356,-0.0412,-0.0416,-0.0446,-0.0477,-0.05,-0.0544,-0.058,-0.0608,-0.0606,-0.0637,-0.0615,-0.0572,-0.0564,-0.0524,-0.0447,-0.0396,-0.0365,-0.036,-0.0385,-0.0294,-0.0227,-0.0216,-0.03,-0.0297,-0.0295,-0.037,0,-0.0392,-0.0459,-0.0479,-0.0546,-0.0579,-0.0594,-0.0636,-0.0667,-0.0685,-0.0715,-0.0682,-0.0697,-0.0608,-0.0595,-0.0501,-0.0399,-0.037,-0.0384,-0.0287,-0.0287,-0.0206,-0.0202,-0.0288,-0.0366,-0.0365,-0.0364,-0.0364,0,-0.0421,-0.0466,-0.054,-0.0614,-0.0628,-0.0669,-0.0732,-0.0775,-0.0809,-0.0819,-0.0803,-0.0772,-0.0689,-0.0613,-0.0443,-0.0433,-0.0365,-0.03,-0.03,-0.02,-0.0205,-0.0326,-0.0355,-0.0356,-0.0356,-0.0357,-0.0357,0,-0.042,-0.0505,-0.057,-0.0594,-0.0672,-0.0713,-0.0757,-0.0805,-0.0839,-0.0884,-0.0895,-0.0815,-0.0767,-0.0619,-0.0435,-0.0424,-0.0252,-0.025,-0.0176,-0.0177,-0.0198,-0.0201,-0.0171,-0.0171,-0.0171,-0.0171,-0.0171,0,-0.0442,-0.0493,-0.0578,-0.0611,-0.0689,-0.0739,-0.0814,-0.0857,-0.0907,-0.0926,-0.0929,-0.0898,-0.0733,-0.061,-0.0467,-0.0272,-0.0282,-0.017,-0.0157,-0.0233,-0.0239,-0.0201,-0.0203,-0.0174,-0.0173,-0.0172,-0.0172,0,-0.0431,-0.0486,-0.0567,-0.0661,-0.0691,-0.0751,-0.0839,-0.088,-0.0937,-0.0962,-0.0967,-0.0928,-0.0767,-0.0638,-0.0432,-0.0317,-0.016,-0.012,-0.027,-0.0267,-0.0162,-0.0166,-0.0085,-0.0083,-0.008,-0.0079,-0.0077,0,-0.0435,-0.0472,-0.0587,-0.0637,-0.0686,-0.0771,-0.0812,-0.0884,-0.0908,-0.0939,-0.0925,-0.0853,-0.079,-0.0513,-0.0351,-0.0173,-0.0129,-0.0107,-0.0074,-0.014,-0.0137,-0.0145,-0.0152,-0.0074,-0.0073,-0.0073,-0.0072,0,-0.0432,-0.0474,-0.0544,-0.064,-0.0703,-0.0767,-0.0824,-0.0837,-0.0886,-0.0925,-0.087,-0.0784,-0.0648,-0.047,-0.0339,-0.0187,-0.0125,-0.0085,-0.009,-0.0058,-0.0125,-0.0126,-0.0136,-0.0064,-0.0066,-0.0066,-0.0067,0,-0.0429,-0.048,-0.0563,-0.0646,-0.0715,-0.0747,-0.0788,-0.0795,-0.0822,-0.0843,-0.0794,-0.0715,-0.0662,-0.0477,-0.0312,-0.0183,-0.0169,-0.013,-0.0133,-0.014,-0.009,-0.0179,-0.011,0,0,0,0,0,-0.0415,-0.0473,-0.0557,-0.0651,-0.0705,-0.0735,-0.078,-0.0807,-0.0823,-0.0773,-0.0795,-0.0668,-0.0492,-0.0429,-0.0291,-0.0274,-0.0141,-0.0106,-0.0097,-0.0023,-0.0032,0.0051,0,0,0,0,0,0,-0.0425,-0.0495,-0.0551,-0.061,-0.066,-0.0709,-0.0734,-0.075,-0.0724,-0.0735,-0.0646,-0.0617,-0.045,-0.0567,-0.0284,-0.0249,-0.0219,-0.0034,-0.0031,-0.0018,-0.0026,-0.0033,0.0049,0,0,0,0,0]}]]